Hourly Weather Rudnya

Today, 22 April, Thursday

Time Temperature Precipitation Wind Pressure Humidity
00:00 +7°C° 0 mm 3 mps 750 mmHg 83%
01:00 +7°C° 0 mm 3 mps 750 mmHg 84%
02:00 +5°C° 0 mm 3 mps 750 mmHg 85%
03:00 +5°C° 0 mm 3 mps 750 mmHg 85%
04:00 +5°C° 0 mm 3 mps 750 mmHg 86%
05:00 +5°C° 0 mm 3 mps 751 mmHg 86%
06:00 +7°C° 0 mm 3 mps 751 mmHg 81%
07:00 +8°C° 0 mm 4 mps 751 mmHg 75%
08:00 +11°C° 0 mm 4 mps 751 mmHg 69%
09:00 +12°C° 0 mm 5 mps 751 mmHg 63%
10:00 +14°C° 0 mm 5 mps 751 mmHg 57%
11:00 +15°C° 0 mm 5 mps 751 mmHg 51%
12:00 +16°C° 0 mm 6 mps 751 mmHg 51%
13:00 +16°C° 0 mm 6 mps 751 mmHg 50%
14:00 +16°C° 0 mm 6 mps 751 mmHg 50%
15:00 +16°C° 0 mm 6 mps 750 mmHg 52%
16:00 +15°C° 0 mm 6 mps 750 mmHg 54%
17:00 +15°C° 0 mm 6 mps 750 mmHg 56%
18:00 +14°C° 0.3 mm 5 mps 750 mmHg 62%
19:00 +13°C° 0.3 mm 5 mps 750 mmHg 68%
20:00 +11°C° 0.3 mm 4 mps 750 mmHg 74%
21:00 +11°C° 0.4 mm 4 mps 750 mmHg 76%
22:00 +10°C° 0.4 mm 4 mps 750 mmHg 78%
23:00 +10°C° 0.4 mm 4 mps 750 mmHg 81%

Tomorrow, 23 April, Friday

Time Temperature Precipitation Wind Pressure Humidity
00:00 +8°C° 0 mm 4 mps 750 mmHg 84%
01:00 +9°C° 0 mm 3 mps 750 mmHg 88%
02:00 +8°C° 0 mm 3 mps 750 mmHg 92%
03:00 +8°C° 0 mm 3 mps 750 mmHg 91%
04:00 +6°C° 0 mm 4 mps 750 mmHg 90%
05:00 +6°C° 0 mm 4 mps 751 mmHg 89%
06:00 +6°C° 0.2 mm 4 mps 751 mmHg 86%
07:00 +7°C° 0.2 mm 3 mps 751 mmHg 83%
08:00 +7°C° 0.2 mm 3 mps 752 mmHg 80%
09:00 +7°C° 0.3 mm 3 mps 752 mmHg 74%
10:00 +8°C° 0.3 mm 3 mps 752 mmHg 68%
11:00 +9°C° 0.3 mm 3 mps 752 mmHg 62%
12:00 +9°C° 0 mm 3 mps 752 mmHg 58%
13:00 +10°C° 0 mm 4 mps 752 mmHg 53%
14:00 +10°C° 0 mm 4 mps 752 mmHg 49%
15:00 +10°C° 0 mm 4 mps 751 mmHg 50%
16:00 +10°C° 0 mm 3 mps 751 mmHg 52%
17:00 +10°C° 0 mm 3 mps 751 mmHg 54%
18:00 +8°C° 0.1 mm 3 mps 751 mmHg 60%
19:00 +7°C° 0.1 mm 3 mps 751 mmHg 66%
20:00 +5°C° 0.1 mm 3 mps 751 mmHg 72%
21:00 +4°C° 0 mm 3 mps 751 mmHg 73%
22:00 +4°C° 0 mm 3 mps 751 mmHg 75%
23:00 +3°C° 0 mm 3 mps 751 mmHg 77%

Day after tomorrow, 24 April, Saturday

Time Temperature Precipitation Wind Pressure Humidity
00:00 +3°C° 0 mm 3 mps 751 mmHg 78%
01:00 +2°C° 0 mm 3 mps 751 mmHg 80%
02:00 +2°C° 0 mm 3 mps 751 mmHg 81%
03:00 +2°C° 0 mm 3 mps 751 mmHg 82%
04:00 +1°C° 0 mm 3 mps 751 mmHg 83%
05:00 +1°C° 0 mm 3 mps 751 mmHg 84%
06:00 +1°C° 0.2 mm 4 mps 751 mmHg 85%
07:00 +1°C° 0.2 mm 5 mps 751 mmHg 87%
08:00 +2°C° 0.2 mm 6 mps 751 mmHg 88%
09:00 +2°C° 0.5 mm 6 mps 751 mmHg 81%
10:00 +3°C° 0.5 mm 7 mps 751 mmHg 73%
11:00 +2°C° 0.5 mm 8 mps 752 mmHg 66%
12:00 +4°C° 0.3 mm 8 mps 752 mmHg 61%
13:00 +4°C° 0.3 mm 8 mps 752 mmHg 56%
14:00 +5°C° 0.3 mm 7 mps 752 mmHg 51%
15:00 +5°C° 0.1 mm 7 mps 752 mmHg 52%
16:00 +5°C° 0.1 mm 7 mps 752 mmHg 52%
17:00 +5°C° 0.1 mm 6 mps 753 mmHg 53%
18:00 +5°C° 0 mm 5 mps 753 mmHg 58%
19:00 +4°C° 0 mm 4 mps 753 mmHg 63%
20:00 +3°C° 0 mm 3 mps 754 mmHg 67%
21:00 +2°C° 0 mm 3 mps 754 mmHg 69%
22:00 +2°C° 0 mm 3 mps 754 mmHg 71%
23:00 +2°C° 0 mm 3 mps 754 mmHg 73%

25 April, Sunday

Time Temperature Precipitation Wind Pressure Humidity
00:00 +1°C° 0 mm 3 mps 754 mmHg 74%
01:00 +1°C° 0 mm 3 mps 754 mmHg 75%
02:00 +1°C° 0 mm 3 mps 754 mmHg 76%
03:00 0°C° 0 mm 3 mps 753 mmHg 77%
04:00 0°C° 0 mm 3 mps 753 mmHg 79%
05:00 0°C° 0 mm 3 mps 753 mmHg 80%
06:00 0°C° 0 mm 4 mps 753 mmHg 74%
07:00 +3°C° 0 mm 4 mps 753 mmHg 68%
08:00 +3°C° 0 mm 5 mps 753 mmHg 62%
09:00 +3°C° 0.2 mm 5 mps 753 mmHg 70%
10:00 +3°C° 0.2 mm 5 mps 753 mmHg 77%
11:00 +3°C° 0.2 mm 5 mps 753 mmHg 85%
12:00 +5°C° 0.1 mm 4 mps 753 mmHg 78%
13:00 +6°C° 0.1 mm 4 mps 753 mmHg 71%
14:00 +7°C° 0.1 mm 4 mps 753 mmHg 64%
15:00 +7°C° 0.1 mm 4 mps 752 mmHg 64%
16:00 +7°C° 0.1 mm 4 mps 752 mmHg 65%
17:00 +7°C° 0.1 mm 4 mps 752 mmHg 66%
18:00 +5°C° 0.1 mm 4 mps 752 mmHg 72%
19:00 +4°C° 0.1 mm 3 mps 752 mmHg 78%
20:00 +4°C° 0.1 mm 2 mps 753 mmHg 83%
21:00 +3°C° 0 mm 2 mps 753 mmHg 83%
22:00 +3°C° 0 mm 2 mps 753 mmHg 82%
23:00 +2°C° 0 mm 2 mps 753 mmHg 82%

26 April, Monday

Time Temperature Precipitation Wind Pressure Humidity
00:00 +2°C° 0 mm 2 mps 752 mmHg 82%
01:00 +2°C° 0 mm 2 mps 752 mmHg 81%
02:00 +1°C° 0 mm 2 mps 752 mmHg 81%
03:00 +1°C° 0 mm 2 mps 752 mmHg 81%
04:00 0°C° 0 mm 3 mps 752 mmHg 82%
05:00 -1°C° 0 mm 3 mps 752 mmHg 82%
06:00 +1°C° 0 mm 3 mps 752 mmHg 77%
07:00 +2°C° 0 mm 3 mps 751 mmHg 72%
08:00 +4°C° 0 mm 4 mps 751 mmHg 68%
09:00 +5°C° 0.3 mm 5 mps 751 mmHg 62%
10:00 +6°C° 0.3 mm 5 mps 751 mmHg 56%
11:00 +7°C° 0.3 mm 6 mps 751 mmHg 50%
12:00 +7°C° 0.2 mm 6 mps 750 mmHg 50%
13:00 +6°C° 0.2 mm 7 mps 750 mmHg 50%
14:00 +6°C° 0.2 mm 7 mps 750 mmHg 51%
15:00 +5°C° 0.2 mm 6 mps 750 mmHg 52%
16:00 +5°C° 0.2 mm 6 mps 750 mmHg 54%
17:00 +5°C° 0.2 mm 6 mps 750 mmHg 55%
18:00 +5°C° 0 mm 5 mps 750 mmHg 58%
19:00 +3°C° 0 mm 4 mps 751 mmHg 62%
20:00 +2°C° 0 mm 3 mps 751 mmHg 66%
21:00 +2°C° 0 mm 3 mps 751 mmHg 69%
22:00 +1°C° 0 mm 3 mps 751 mmHg 73%
23:00 +1°C° 0 mm 3 mps 751 mmHg 76%

27 April, Tuesday

Time Temperature Precipitation Wind Pressure Humidity
00:00 0°C° 0 mm 3 mps 751 mmHg 79%
01:00 0°C° 0 mm 3 mps 751 mmHg 81%
02:00 0°C° 0 mm 3 mps 751 mmHg 83%
03:00 0°C° 0 mm 3 mps 751 mmHg 83%
04:00 0°C° 0 mm 3 mps 751 mmHg 84%
05:00 +1°C° 0 mm 2 mps 751 mmHg 84%
06:00 +2°C° 0 mm 3 mps 751 mmHg 79%
07:00 +3°C° 0 mm 3 mps 752 mmHg 73%
08:00 +4°C° 0 mm 3 mps 752 mmHg 67%
09:00 +7°C° 0 mm 3 mps 752 mmHg 62%
10:00 +8°C° 0 mm 3 mps 752 mmHg 56%
11:00 +9°C° 0 mm 3 mps 752 mmHg 50%
12:00 +10°C° 0 mm 3 mps 752 mmHg 46%
13:00 +11°C° 0 mm 3 mps 751 mmHg 43%
14:00 +11°C° 0 mm 3 mps 751 mmHg 40%
15:00 +11°C° 0 mm 3 mps 751 mmHg 41%
16:00 +12°C° 0 mm 3 mps 751 mmHg 42%
17:00 +13°C° 0 mm 2 mps 751 mmHg 43%
18:00 +10°C° 0 mm 2 mps 751 mmHg 48%
19:00 +10°C° 0 mm 1 mps 751 mmHg 52%
20:00 +8°C° 0 mm 1 mps 751 mmHg 57%
21:00 +8°C° 0 mm 1 mps 751 mmHg 59%
22:00 +7°C° 0 mm 1 mps 751 mmHg 62%
23:00 +6°C° 0 mm 2 mps 751 mmHg 64%
Show more